TimePST,TemperatureF,Dew PointF,Humidity,Sea Level PressureIn,VisibilityMPH,Wind Direction,Wind SpeedMPH,Gust SpeedMPH,PrecipitationIn,Events,Conditions,WindDirDegrees,DateUTC
12:34 AM,6.8,3.2,85,30.25,1.0,WSW,5.8,-,N/A,,Overcast,250,2013-01-22 08:34:00
12:53 AM,8.1,5.0,87,30.38,0.5,WSW,4.6,-,N/A,,Overcast,250,2013-01-22 08:53:00
1:23 AM,8.6,6.8,92,30.26,0.2,WSW,3.5,-,N/A,Fog,Light Freezing Fog,250,2013-01-22 09:23:00
1:53 AM,10.0,7.0,87,30.38,0.2,Calm,Calm,-,N/A,Fog,Light Freezing Fog,0,2013-01-22 09:53:00
2:53 AM,12.0,7.0,80,30.36,0.1,Calm,Calm,-,N/A,Fog,Light Freezing Fog,0,2013-01-22 10:53:00
3:53 AM,15.1,10.9,84,30.34,0.1,Calm,Calm,-,N/A,Fog,Light Freezing Fog,0,2013-01-22 11:53:00
4:53 AM,16.0,12.0,84,30.34,0.2,North,4.6,-,N/A,Fog,Light Freezing Fog,350,2013-01-22 12:53:00
5:53 AM,16.0,12.0,84,30.35,0.2,Calm,Calm,-,N/A,Fog,Light Freezing Fog,0,2013-01-22 13:53:00
6:53 AM,16.0,12.0,84,30.35,0.2,NE,3.5,-,N/A,Fog,Light Freezing Fog,40,2013-01-22 14:53:00
7:53 AM,16.0,12.0,84,30.35,0.2,NNE,4.6,-,N/A,Fog,Light Freezing Fog,30,2013-01-22 15:53:00
8:53 AM,18.0,12.9,81,30.35,0.1,Calm,Calm,-,N/A,Fog,Light Freezing Fog,0,2013-01-22 16:53:00
9:53 AM,19.0,14.0,81,30.36,0.1,NNW,4.6,-,N/A,Fog,Light Freezing Fog,340,2013-01-22 17:53:00
10:53 AM,21.0,16.0,81,30.36,0.2,Calm,Calm,-,N/A,Fog,Light Freezing Fog,0,2013-01-22 18:53:00
11:53 AM,21.9,18.0,85,30.34,0.2,NNE,6.9,-,N/A,Fog,Light Freezing Fog,30,2013-01-22 19:53:00
12:53 PM,23.0,19.0,85,30.31,0.2,NE,4.6,-,N/A,Fog,Light Freezing Fog,50,2013-01-22 20:53:00
1:53 PM,24.1,19.9,84,30.29,0.2,NNE,3.5,-,N/A,Fog,Light Freezing Fog,20,2013-01-22 21:53:00
2:53 PM,23.0,19.9,88,30.27,0.2,NNW,3.5,-,N/A,Fog,Light Freezing Fog,340,2013-01-22 22:53:00
3:10 PM,23.0,19.4,86,30.15,1.0,Calm,Calm,-,N/A,,Overcast,0,2013-01-22 23:10:00
3:53 PM,23.0,19.9,88,30.26,0.2,NNE,3.5,-,N/A,,Overcast,20,2013-01-22 23:53:00
4:37 PM,23.0,19.4,86,30.16,1.0,Calm,Calm,-,N/A,,Overcast,0,2013-01-23 00:37:00
4:53 PM,21.9,19.9,92,30.25,0.5,Calm,Calm,-,N/A,,Overcast,0,2013-01-23 00:53:00
5:43 PM,23.0,19.4,86,30.13,0.1,East,3.5,-,N/A,Fog,Light Freezing Fog,80,2013-01-23 01:43:00
5:53 PM,23.0,19.9,88,30.24,0.1,ENE,3.5,-,N/A,Fog,Light Freezing Fog,60,2013-01-23 01:53:00
6:53 PM,21.9,19.9,92,30.25,0.1,Calm,Calm,-,N/A,Fog,Light Freezing Fog,0,2013-01-23 02:53:00
7:53 PM,21.9,19.0,89,30.23,0.1,ENE,3.5,-,N/A,Fog,Light Freezing Fog,60,2013-01-23 03:53:00
8:53 PM,21.9,19.0,89,30.22,0.1,NNE,3.5,-,N/A,Fog,Light Freezing Fog,30,2013-01-23 04:53:00
9:53 PM,21.9,19.0,89,30.22,0.5,NE,3.5,-,N/A,,Mist,40,2013-01-23 05:53:00
10:53 PM,21.9,19.0,89,30.22,0.5,North,3.5,-,N/A,,Overcast,360,2013-01-23 06:53:00
11:39 PM,21.2,19.4,93,30.11,1.0,NNE,3.5,-,N/A,,Overcast,20,2013-01-23 07:39:00
11:53 PM,21.0,19.0,92,30.20,1.0,Calm,Calm,-,N/A,,Overcast,0,2013-01-23 07:53:00